Location: *
(40.7873°S, 98.7174°E)
Time: 00:32:05
(UTC+00:00)

ARIANE 6 FM1 Upper Stage - Visible Passes

Search period start: 09 November 2024 00:00
Search period end: 19 November 2024 00:00
Orbit: 559 x 596 km, 62.0° (Epoch: 07 November)

Date Brightness Start Highest point End Pass type
(mag) Time Alt. Az. Time Alt. Az. Time Alt. Az.
09 Nov 4.9 17:38:17 10° SSW 17:41:33 23° SE 17:41:33 23° SE visible
09 Nov 5.1 19:17:11 10° SW 19:17:45 13° SW 19:17:45 13° SW visible
10 Nov 4.7 17:41:54 10° SSW 17:44:33 28° S 17:44:33 28° S visible
11 Nov 5.7 16:09:02 10° SSE 16:09:33 10° SSE 16:10:03 10° SE visible
11 Nov 4.7 17:45:37 10° SSW 17:47:42 26° SSW 17:47:42 26° SSW visible
12 Nov 5.3 16:11:30 10° S 16:13:45 14° SE 16:14:42 13° SE visible
12 Nov 4.9 17:49:25 10° SW 17:50:55 21° SW 17:50:55 21° SW visible
13 Nov 5.0 16:14:47 10° S 16:17:52 19° SE 16:18:00 19° SE visible
13 Nov 5.2 17:53:19 10° SW 17:54:14 16° SW 17:54:14 16° SW visible
14 Nov 4.6 16:18:15 10° SSW 16:21:21 26° SSE 16:21:21 26° SSE visible
14 Nov 5.5 17:57:21 10° SW 17:57:35 11° SW 17:57:35 11° SW visible
15 Nov 4.3 16:21:49 10° SSW 16:24:44 33° S 16:24:44 33° S visible
16 Nov 5.4 14:48:11 10° SSE 14:49:36 11° SSE 14:51:00 10° SE visible
16 Nov 4.2 16:25:29 10° SSW 16:28:09 35° SSW 16:28:09 35° SSW visible
17 Nov 5.0 14:51:06 10° S 14:53:41 15° SE 14:55:22 13° ESE visible
17 Nov 4.3 16:29:14 10° SW 16:31:35 32° SW 16:31:35 32° SW visible
18 Nov 4.6 14:54:22 10° S 14:57:42 21° SE 14:58:50 19° ESE visible
18 Nov 4.6 16:33:06 10° SW 16:35:03 25° WSW 16:35:03 25° WSW visible
